Fairfield, IA

7:57 AM CST on November 24, 2017 (GMT -0600)
Fairfield Municipal

Weather History for KFFL - May, 2013

Change the Weather History Date:

Tuesday, May 28, 2013

  Actual Average Record
Temperature  
Mean Temperature 70 °F -  
Max Temperature 78 °F 76 °F 93 °F (2006)
Min Temperature 62 °F 55 °F 39 °F (1992)
Cooling Degree Days 5    
Growing Degree Days 20 (Base 50)    
Moisture  
Dew Point 65 °F    
Average Humidity 86    
Maximum Humidity 94    
Minimum Humidity 73    
Precipitation  
Precipitation 1.65 in - - ()
Sea Level Pressure  
Sea Level Pressure 29.75 in    
Wind  
Wind Speed 12 mph (SSW)    
Max Wind Speed 31 mph    
Max Gust Speed 41 mph    
Visibility 9 miles    
Events Rain    
Averages and records for this station are not official NWS values.
T = Trace of Precipitation, MM = Missing Value Source: NWS Daily Summary

Daily Weather History Graph

Daily Weather History Graph

Search for Another Location

Airport or City:

Trip Planner

Search our weather history database for the weather conditions in past years. The results will help you decide how hot, cold, wet, or windy it might be!

Date:

Astronomy

May. 28, 2013 Rise Set
Actual Time 5:39 AM CDT 8:31 PM CDT
Civil Twilight 5:07 AM CDT 9:03 PM CDT
Nautical Twilight 4:26 AM CDT 9:45 PM CDT
Astronomical Twilight 3:38 AM CDT 10:32 PM CDT
Moon 11:53 PM CDT (5/28) 9:29 AM CDT (5/28)
Length of Visible Light 15h 56m
Length of Day
14h 51m
Waning Gibbous, 82% of the Moon is Illuminated
May 28
Waning Gibbous
May 31
Last Quarter
Jun 8
New
Jun 16
First Quarter
Jun 23
Full

Hourly Weather History & Observations

Time (CDT) Temp. Dew Point Humidity Pressure Visibility Wind Dir Wind Speed Gust Speed Precip Events Conditions
12:15 AM 66.2 °F 62.6 °F 88% 29.76 in 10.0 mi SE 6.9 mph - N/A   Overcast
12:35 AM 66.2 °F 62.6 °F 88% 29.75 in 10.0 mi SE 6.9 mph - N/A   Overcast
12:55 AM 66.2 °F 62.6 °F 88% 29.76 in 10.0 mi SSE 6.9 mph - N/A   Overcast
1:15 AM 66.2 °F 62.6 °F 88% 29.73 in 10.0 mi SSE 10.4 mph - N/A   Overcast
1:35 AM 68.0 °F 64.4 °F 88% 29.73 in 10.0 mi South 11.5 mph - N/A   Overcast
1:55 AM 68.0 °F 64.4 °F 88% 29.72 in 10.0 mi South 12.7 mph - N/A   Overcast
2:15 AM 69.8 °F 64.4 °F 83% 29.71 in 10.0 mi South 13.8 mph - N/A   Overcast
2:35 AM 69.8 °F 64.4 °F 83% 29.71 in 10.0 mi South 12.7 mph 18.4 mph N/A   Overcast
2:55 AM 68.0 °F 64.4 °F 88% 29.72 in 9.0 mi South 10.4 mph 18.4 mph N/A   Light Drizzle
3:15 AM 68.0 °F 64.4 °F 88% 29.73 in 6.0 mi South 16.1 mph - N/A Rain Rain
3:35 AM 68.0 °F 64.4 °F 88% 29.67 in 6.0 mi South 17.3 mph 23.0 mph N/A Rain Light Rain
3:55 AM 66.2 °F 62.6 °F 88% 29.62 in 9.0 mi SE 15.0 mph 20.7 mph 0.07 in   Light Drizzle
4:15 AM 66.2 °F 62.6 °F 88% 29.64 in 10.0 mi SSE 8.1 mph 13.8 mph N/A   Mostly Cloudy
4:35 AM 68.0 °F 62.6 °F 83% 29.69 in 10.0 mi SSW 11.5 mph - N/A   Mostly Cloudy
4:55 AM 66.2 °F 62.6 °F 88% 29.73 in 10.0 mi SSW 21.9 mph 31.1 mph N/A   Mostly Cloudy
5:15 AM 66.2 °F 62.6 °F 88% 29.72 in 10.0 mi SSW 15.0 mph 24.2 mph N/A   Mostly Cloudy
5:35 AM 64.4 °F 60.8 °F 88% 29.72 in 10.0 mi South 17.3 mph - N/A   Mostly Cloudy
5:55 AM 64.4 °F 60.8 °F 88% 29.70 in 10.0 mi South 13.8 mph 23.0 mph N/A   Overcast
6:15 AM 64.4 °F 60.8 °F 88% 29.74 in 1.8 mi SSW 24.2 mph 39.1 mph N/A   Light Drizzle
6:35 AM 62.6 °F 60.8 °F 94% 29.74 in 1.5 mi SSW 17.3 mph 25.3 mph N/A Rain Heavy Rain
6:55 AM 62.6 °F 60.8 °F 94% 29.75 in 2.0 mi WSW 12.7 mph - 0.93 in Rain Rain
7:15 AM 62.6 °F 60.8 °F 94% 29.74 in 2.5 mi SSW 13.8 mph - N/A Rain Light Rain
7:35 AM 62.6 °F 60.8 °F 94% 29.74 in 8.0 mi SW 4.6 mph - N/A   Light Drizzle
10:15 AM - - N/A% 29.72 in - South 16.1 mph - N/A   Unknown
10:35 AM 69.8 °F 66.2 °F 88% 29.71 in 10.0 mi South 15.0 mph - N/A   Unknown
10:55 AM 73.4 °F 68.0 °F 83% 29.71 in 10.0 mi SSW 17.3 mph 24.2 mph N/A   Overcast
11:15 AM 73.4 °F 68.0 °F 83% 29.71 in 10.0 mi SSW 16.1 mph 24.2 mph N/A   Mostly Cloudy
11:35 AM 75.2 °F 68.0 °F 78% 29.71 in 10.0 mi SSW 19.6 mph 27.6 mph N/A   Overcast
11:55 AM 75.2 °F 69.8 °F 83% 29.72 in 10.0 mi SSW 12.7 mph 23.0 mph N/A   Overcast
12:15 PM 75.2 °F 68.0 °F 78% 29.72 in 10.0 mi SSW 15.0 mph 23.0 mph N/A   Overcast
12:35 PM 75.2 °F 68.0 °F 78% 29.73 in 10.0 mi SSW 15.0 mph 20.7 mph N/A   Overcast
12:55 PM 75.2 °F 68.0 °F 78% 29.73 in 10.0 mi SSW 13.8 mph - N/A   Overcast
1:15 PM 75.2 °F 69.8 °F 83% 29.73 in 10.0 mi SW 13.8 mph 20.7 mph N/A   Overcast
1:35 PM 77.0 °F 69.8 °F 78% 29.73 in 10.0 mi SW 13.8 mph - N/A   Overcast
1:55 PM 77.0 °F 69.8 °F 78% 29.74 in 10.0 mi SW 13.8 mph - N/A   Overcast
2:15 PM 77.0 °F 69.8 °F 78% 29.74 in 10.0 mi SW 12.7 mph 19.6 mph N/A   Overcast
2:35 PM 77.0 °F 69.8 °F 78% 29.74 in 10.0 mi SSW 12.7 mph 18.4 mph N/A   Overcast
2:55 PM 77.0 °F 69.8 °F 78% 29.74 in 10.0 mi SSW 13.8 mph - N/A   Overcast
3:15 PM 78.8 °F 69.8 °F 74% 29.74 in 10.0 mi SSW 15.0 mph 21.9 mph N/A   Overcast
3:35 PM 78.8 °F 71.6 °F 78% 29.75 in 10.0 mi SSW 17.3 mph - N/A   Mostly Cloudy
3:55 PM 78.8 °F 71.6 °F 78% 29.74 in 10.0 mi SSW 13.8 mph 19.6 mph N/A   Scattered Clouds
4:15 PM 77.0 °F 71.6 °F 83% 29.74 in 10.0 mi South 16.1 mph - N/A   Partly Cloudy
4:35 PM 77.0 °F 71.6 °F 83% 29.75 in 10.0 mi WSW 9.2 mph - N/A   Partly Cloudy
4:55 PM 77.0 °F 71.6 °F 83% 29.76 in 10.0 mi SSW 13.8 mph 19.6 mph N/A   Partly Cloudy
5:15 PM 77.0 °F 71.6 °F 83% 29.76 in 10.0 mi SSW 10.4 mph - N/A   Mostly Cloudy
5:35 PM 75.2 °F 71.6 °F 89% 29.77 in 10.0 mi West 9.2 mph 15.0 mph N/A   Overcast
5:55 PM 71.6 °F 62.6 °F 73% 29.74 in 5.0 mi South 4.6 mph - 0.05 in   Light Drizzle
6:15 PM 75.2 °F 69.8 °F 83% 29.75 in 10.0 mi South 8.1 mph - N/A   Light Drizzle
6:35 PM 75.2 °F 69.8 °F 83% 29.72 in 10.0 mi South 13.8 mph - N/A   Mostly Cloudy
6:55 PM 73.4 °F 69.8 °F 88% 29.71 in 10.0 mi South 11.5 mph - N/A   Overcast
7:15 PM 73.4 °F 69.8 °F 88% 29.73 in 6.0 mi South 5.8 mph - N/A   Light Drizzle
7:35 PM 66.2 °F 62.6 °F 88% 29.78 in 1.2 mi NNW 31.1 mph 41.4 mph N/A Rain Light Rain
7:55 PM 62.6 °F 60.8 °F 94% 29.81 in 2.0 mi WNW 15.0 mph 27.6 mph 0.49 in Rain Heavy Rain
8:15 PM 62.6 °F 59.0 °F 88% 29.87 in 7.0 mi WSW 10.4 mph 26.5 mph N/A Rain Rain
8:35 PM 62.6 °F 59.0 °F 88% 29.85 in 9.0 mi South 11.5 mph - N/A Rain Light Rain
8:55 PM 62.6 °F 60.8 °F 94% 29.85 in 8.0 mi SSE 10.4 mph - 0.06 in Rain Light Rain
9:15 PM 62.6 °F 60.8 °F 94% 29.86 in 7.0 mi South 10.4 mph - N/A Rain Light Rain
9:35 PM 64.4 °F 60.8 °F 88% 29.89 in 5.0 mi SSW 12.7 mph 18.4 mph N/A Rain Light Rain
9:55 PM 64.4 °F 59.0 °F 83% 29.91 in 5.0 mi SSW 13.8 mph - 0.05 in Rain Light Rain
10:15 PM 62.6 °F 60.8 °F 94% 29.84 in 10.0 mi East 13.8 mph - N/A   Light Drizzle
10:35 PM 64.4 °F 60.8 °F 88% 29.83 in 10.0 mi SSE 10.4 mph - N/A   Overcast
10:55 PM 62.6 °F 60.8 °F 94% 29.81 in 10.0 mi SSE 4.6 mph - N/A   Overcast
11:15 PM 62.6 °F 60.8 °F 94% 29.83 in 10.0 mi South 18.4 mph 25.3 mph N/A   Overcast
11:35 PM 62.6 °F 59.0 °F 88% 29.82 in 10.0 mi South 15.0 mph - N/A   Mostly Cloudy
11:55 PM 62.6 °F 59.0 °F 88% 29.80 in 10.0 mi SSE 11.5 mph - N/A   Mostly Cloudy